owner,sensor,date,latitude,longitude,air_temperature,qcFlag 
WAVCIS,ioos:station:WAVCIS:CSI15:1,2011-01-01T00:00:00Z,28.8332,-90.8320,36.21,11111222 
WAVCIS,ioos:station:WAVCIS:CSI15:1,2011-01-01T01:00:00Z,28.8332,-90.8320,36.14,11111222 
WAVCIS,ioos:station:WAVCIS:CSI15:1,2011-01-01T02:00:00Z,28.8332,-90.8320,26.02,11111222 
WAVCIS,ioos:station:WAVCIS:CSI15:1,2011-01-01T03:00:00Z,28.8332,-90.8320,36.08,11111222 
WAVCIS,ioos:station:WAVCIS:CSI15:1,2011-01-01T04:00:00Z,28.8332,-90.8320,32.15,11111222 
WAVCIS,ioos:station:WAVCIS:CSI15:1,2011-01-01T05:00:00Z,28.8332,-90.8320,36.07,11111222 
WAVCIS,ioos:station:WAVCIS:CSI15:1,2011-01-01T06:00:00Z,28.8332,-90.8320,36.01,11111222 
WAVCIS,ioos:station:WAVCIS:CSI15:1,2011-01-01T07:00:00Z,28.8332,-90.8320,35.97,11111222 
WAVCIS,ioos:station:WAVCIS:CSI15:1,2011-01-01T08:00:00Z,28.8332,-90.8320,34.47,11111222 
WAVCIS,ioos:station:WAVCIS:CSI15:1,2011-01-01T09:00:00Z,28.8332,-90.8320,35.58,11111222 
WAVCIS,ioos:station:WAVCIS:CSI15:1,2011-01-01T10:00:00Z,28.8332,-90.8320,26.31,11111222 
WAVCIS,ioos:station:WAVCIS:CSI15:1,2011-01-01T11:00:00Z,28.8332,-90.8320,35.4,11111222 
WAVCIS,ioos:station:WAVCIS:CSI15:1,2011-01-01T12:00:00Z,28.8332,-90.8320,30.07,11111222 
WAVCIS,ioos:station:WAVCIS:CSI15:1,2011-01-01T13:00:00Z,28.8332,-90.8320,29.18,11111222 
WAVCIS,ioos:station:WAVCIS:CSI15:1,2011-01-01T14:00:00Z,28.8332,-90.8320,26.06,11111222 
WAVCIS,ioos:station:WAVCIS:CSI15:1,2011-01-01T15:00:00Z,28.8332,-90.8320,26.3,11111222 
WAVCIS,ioos:station:WAVCIS:CSI15:1,2011-01-01T16:00:00Z,28.8332,-90.8320,27.01,11111222 
WAVCIS,ioos:station:WAVCIS:CSI15:1,2011-01-01T17:00:00Z,28.8332,-90.8320,26.86,11111222 
WAVCIS,ioos:station:WAVCIS:CSI15:1,2011-01-01T18:00:00Z,28.8332,-90.8320,26.38,11111222 
WAVCIS,ioos:station:WAVCIS:CSI15:1,2011-01-01T19:00:00Z,28.8332,-90.8320,24.39,11111222 
WAVCIS,ioos:station:WAVCIS:CSI15:1,2011-01-01T20:00:00Z,28.8332,-90.8320,23.25,11111222 
WAVCIS,ioos:station:WAVCIS:CSI15:1,2011-01-01T21:00:00Z,28.8332,-90.8320,22.68,11111222 
WAVCIS,ioos:station:WAVCIS:CSI15:1,2011-01-01T22:00:00Z,28.8332,-90.8320,22.27,11111222 
WAVCIS,ioos:station:WAVCIS:CSI15:1,2011-01-01T23:00:00Z,28.8332,-90.8320,21.93,11111222 
WAVCIS,ioos:station:WAVCIS:CSI15:1,2011-01-02T00:00:00Z,28.8332,-90.8320,21.18,11111222 
WAVCIS,ioos:station:WAVCIS:CSI15:1,2011-01-02T01:00:00Z,28.8332,-90.8320,20.98,11111222 
WAVCIS,ioos:station:WAVCIS:CSI15:1,2011-01-02T02:00:00Z,28.8332,-90.8320,20.43,11111222 
WAVCIS,ioos:station:WAVCIS:CSI15:1,2011-01-02T03:00:00Z,28.8332,-90.8320,20.42,11111222 
WAVCIS,ioos:station:WAVCIS:CSI15:1,2011-01-02T04:00:00Z,28.8332,-90.8320,20.51,11111222 
WAVCIS,ioos:station:WAVCIS:CSI15:1,2011-01-02T05:00:00Z,28.8332,-90.8320,20.13,11111222 
WAVCIS,ioos:station:WAVCIS:CSI15:1,2011-01-02T06:00:00Z,28.8332,-90.8320,19.99,11111222 
WAVCIS,ioos:station:WAVCIS:CSI15:1,2011-01-02T07:00:00Z,28.8332,-90.8320,19.44,11111222 
WAVCIS,ioos:station:WAVCIS:CSI15:1,2011-01-02T08:00:00Z,28.8332,-90.8320,19.2,11111222 
WAVCIS,ioos:station:WAVCIS:CSI15:1,2011-01-02T09:00:00Z,28.8332,-90.8320,18.45,11111222 
WAVCIS,ioos:station:WAVCIS:CSI15:1,2011-01-02T10:00:00Z,28.8332,-90.8320,17.7,11111222 
WAVCIS,ioos:station:WAVCIS:CSI15:1,2011-01-02T11:00:00Z,28.8332,-90.8320,17.24,11111222 
WAVCIS,ioos:station:WAVCIS:CSI15:1,2011-01-02T12:00:00Z,28.8332,-90.8320,17.43,11111222 
WAVCIS,ioos:station:WAVCIS:CSI15:1,2011-01-02T13:00:00Z,28.8332,-90.8320,17.08,11111222 
WAVCIS,ioos:station:WAVCIS:CSI15:1,2011-01-02T14:00:00Z,28.8332,-90.8320,15.3,11111222 
WAVCIS,ioos:station:WAVCIS:CSI15:1,2011-01-02T15:00:00Z,28.8332,-90.8320,15.34,11111222 
WAVCIS,ioos:station:WAVCIS:CSI15:1,2011-01-02T16:00:00Z,28.8332,-90.8320,15.39,11111222 
WAVCIS,ioos:station:WAVCIS:CSI15:1,2011-01-02T17:00:00Z,28.8332,-90.8320,15.9,11111222 
WAVCIS,ioos:station:WAVCIS:CSI15:1,2011-01-02T18:00:00Z,28.8332,-90.8320,17.33,11111222 
WAVCIS,ioos:station:WAVCIS:CSI15:1,2011-01-02T19:00:00Z,28.8332,-90.8320,17.39,11111222 
WAVCIS,ioos:station:WAVCIS:CSI15:1,2011-01-02T20:00:00Z,28.8332,-90.8320,17.44,11111222 
WAVCIS,ioos:station:WAVCIS:CSI15:1,2011-01-02T21:00:00Z,28.8332,-90.8320,18.5,11111222 
WAVCIS,ioos:station:WAVCIS:CSI15:1,2011-01-02T22:00:00Z,28.8332,-90.8320,18.93,11111222 
WAVCIS,ioos:station:WAVCIS:CSI15:1,2011-01-02T23:00:00Z,28.8332,-90.8320,18.71,11111222 
WAVCIS,ioos:station:WAVCIS:CSI15:1,2011-01-03T00:00:00Z,28.8332,-90.8320,18.59,11111222 
WAVCIS,ioos:station:WAVCIS:CSI15:1,2011-01-03T01:00:00Z,28.8332,-90.8320,17.63,11111222 
WAVCIS,ioos:station:WAVCIS:CSI15:1,2011-01-03T02:00:00Z,28.8332,-90.8320,17.22,11111222 
WAVCIS,ioos:station:WAVCIS:CSI15:1,2011-01-03T03:00:00Z,28.8332,-90.8320,17.06,11111222 
WAVCIS,ioos:station:WAVCIS:CSI15:1,2011-01-03T04:00:00Z,28.8332,-90.8320,16.97,11111222 
WAVCIS,ioos:station:WAVCIS:CSI15:1,2011-01-03T05:00:00Z,28.8332,-90.8320,16.8,11111222 
WAVCIS,ioos:station:WAVCIS:CSI15:1,2011-01-03T06:00:00Z,28.8332,-90.8320,16.52,11111222 
WAVCIS,ioos:station:WAVCIS:CSI15:1,2011-01-03T07:00:00Z,28.8332,-90.8320,16.29,11111222 
WAVCIS,ioos:station:WAVCIS:CSI15:1,2011-01-03T08:00:00Z,28.8332,-90.8320,15.79,11111222 
WAVCIS,ioos:station:WAVCIS:CSI15:1,2011-01-03T09:00:00Z,28.8332,-90.8320,15.59,11111222 
WAVCIS,ioos:station:WAVCIS:CSI15:1,2011-01-03T10:00:00Z,28.8332,-90.8320,16.25,11111222 
WAVCIS,ioos:station:WAVCIS:CSI15:1,2011-01-03T11:00:00Z,28.8332,-90.8320,15.68,11111222 
WAVCIS,ioos:station:WAVCIS:CSI15:1,2011-01-03T12:00:00Z,28.8332,-90.8320,16.18,11111222 
WAVCIS,ioos:station:WAVCIS:CSI15:1,2011-01-03T13:00:00Z,28.8332,-90.8320,16.61,11111222 
WAVCIS,ioos:station:WAVCIS:CSI15:1,2011-01-03T14:00:00Z,28.8332,-90.8320,16.31,11111222 
WAVCIS,ioos:station:WAVCIS:CSI15:1,2011-01-03T15:00:00Z,28.8332,-90.8320,16.95,11111222 
WAVCIS,ioos:station:WAVCIS:CSI15:1,2011-01-03T16:00:00Z,28.8332,-90.8320,17.24,11111222 
WAVCIS,ioos:station:WAVCIS:CSI15:1,2011-01-03T17:00:00Z,28.8332,-90.8320,18.92,11111222 
WAVCIS,ioos:station:WAVCIS:CSI15:1,2011-01-03T18:00:00Z,28.8332,-90.8320,18.81,11111222 
WAVCIS,ioos:station:WAVCIS:CSI15:1,2011-01-03T19:00:00Z,28.8332,-90.8320,18.86,11111222 
WAVCIS,ioos:station:WAVCIS:CSI15:1,2011-01-03T20:00:00Z,28.8332,-90.8320,19.92,11111222 
WAVCIS,ioos:station:WAVCIS:CSI15:1,2011-01-03T21:00:00Z,28.8332,-90.8320,20.03,11111222 
WAVCIS,ioos:station:WAVCIS:CSI15:1,2011-01-03T22:00:00Z,28.8332,-90.8320,20.34,11111222 
WAVCIS,ioos:station:WAVCIS:CSI15:1,2011-01-03T23:00:00Z,28.8332,-90.8320,20.08,11111222 
WAVCIS,ioos:station:WAVCIS:CSI15:1,2011-01-04T00:00:00Z,28.8332,-90.8320,20.24,11111222 
WAVCIS,ioos:station:WAVCIS:CSI15:1,2011-01-04T01:00:00Z,28.8332,-90.8320,19.47,11111222 
WAVCIS,ioos:station:WAVCIS:CSI15:1,2011-01-04T02:00:00Z,28.8332,-90.8320,19.84,11111222 
WAVCIS,ioos:station:WAVCIS:CSI15:1,2011-01-04T03:00:00Z,28.8332,-90.8320,20.14,11111222 
WAVCIS,ioos:station:WAVCIS:CSI15:1,2011-01-04T04:00:00Z,28.8332,-90.8320,21.33,11111222 
WAVCIS,ioos:station:WAVCIS:CSI15:1,2011-01-04T05:00:00Z,28.8332,-90.8320,21.3,11111222 
WAVCIS,ioos:station:WAVCIS:CSI15:1,2011-01-04T06:00:00Z,28.8332,-90.8320,22.03,11111222 
WAVCIS,ioos:station:WAVCIS:CSI15:1,2011-01-04T07:00:00Z,28.8332,-90.8320,22.5,11111222 
WAVCIS,ioos:station:WAVCIS:CSI15:1,2011-01-04T08:00:00Z,28.8332,-90.8320,23.39,11111222 
WAVCIS,ioos:station:WAVCIS:CSI15:1,2011-01-04T09:00:00Z,28.8332,-90.8320,23.2,11111222 
WAVCIS,ioos:station:WAVCIS:CSI15:1,2011-01-04T10:00:00Z,28.8332,-90.8320,23.21,11111222 
WAVCIS,ioos:station:WAVCIS:CSI15:1,2011-01-04T11:00:00Z,28.8332,-90.8320,24.08,11111222 
WAVCIS,ioos:station:WAVCIS:CSI15:1,2011-01-04T12:00:00Z,28.8332,-90.8320,20.55,11111222 
WAVCIS,ioos:station:WAVCIS:CSI15:1,2011-01-04T13:00:00Z,28.8332,-90.8320,22.92,11111222 
WAVCIS,ioos:station:WAVCIS:CSI15:1,2011-01-04T14:00:00Z,28.8332,-90.8320,21.88,11111222 
WAVCIS,ioos:station:WAVCIS:CSI15:1,2011-01-04T15:00:00Z,28.8332,-90.8320,22.2,11111222 
WAVCIS,ioos:station:WAVCIS:CSI15:1,2011-01-04T16:00:00Z,28.8332,-90.8320,21.46,11111222 
WAVCIS,ioos:station:WAVCIS:CSI15:1,2011-01-04T17:00:00Z,28.8332,-90.8320,22.14,11111222 
WAVCIS,ioos:station:WAVCIS:CSI15:1,2011-01-04T18:00:00Z,28.8332,-90.8320,22.18,11111222 
WAVCIS,ioos:station:WAVCIS:CSI15:1,2011-01-04T19:00:00Z,28.8332,-90.8320,22.63,11111222 
WAVCIS,ioos:station:WAVCIS:CSI15:1,2011-01-04T20:00:00Z,28.8332,-90.8320,25.48,11111222 
WAVCIS,ioos:station:WAVCIS:CSI15:1,2011-01-04T21:00:00Z,28.8332,-90.8320,26.07,11111222 
WAVCIS,ioos:station:WAVCIS:CSI15:1,2011-01-04T22:00:00Z,28.8332,-90.8320,23.13,11111222 
WAVCIS,ioos:station:WAVCIS:CSI15:1,2011-01-04T23:00:00Z,28.8332,-90.8320,23.54,11111222 
WAVCIS,ioos:station:WAVCIS:CSI15:1,2011-01-05T00:00:00Z,28.8332,-90.8320,24.68,11111222 
WAVCIS,ioos:station:WAVCIS:CSI15:1,2011-01-05T01:00:00Z,28.8332,-90.8320,25.17,11111222 
WAVCIS,ioos:station:WAVCIS:CSI15:1,2011-01-05T02:00:00Z,28.8332,-90.8320,24.19,11111222 
WAVCIS,ioos:station:WAVCIS:CSI15:1,2011-01-05T03:00:00Z,28.8332,-90.8320,24.44,11111222 
WAVCIS,ioos:station:WAVCIS:CSI15:1,2011-01-05T04:00:00Z,28.8332,-90.8320,24.98,11111222 
WAVCIS,ioos:station:WAVCIS:CSI15:1,2011-01-05T05:00:00Z,28.8332,-90.8320,25.42,11111222 
WAVCIS,ioos:station:WAVCIS:CSI15:1,2011-01-05T06:00:00Z,28.8332,-90.8320,28.36,11111222 
WAVCIS,ioos:station:WAVCIS:CSI15:1,2011-01-05T07:00:00Z,28.8332,-90.8320,28.37,11111222 
WAVCIS,ioos:station:WAVCIS:CSI15:1,2011-01-05T08:00:00Z,28.8332,-90.8320,30.13,11111222 
WAVCIS,ioos:station:WAVCIS:CSI15:1,2011-01-05T09:00:00Z,28.8332,-90.8320,27.94,11111222 
WAVCIS,ioos:station:WAVCIS:CSI15:1,2011-01-05T10:00:00Z,28.8332,-90.8320,29.12,11111222 
WAVCIS,ioos:station:WAVCIS:CSI15:1,2011-01-05T11:00:00Z,28.8332,-90.8320,28.19,11111222 
WAVCIS,ioos:station:WAVCIS:CSI15:1,2011-01-05T12:00:00Z,28.8332,-90.8320,28.77,11111222 
WAVCIS,ioos:station:WAVCIS:CSI15:1,2011-01-05T13:00:00Z,28.8332,-90.8320,28.56,11111222 
WAVCIS,ioos:station:WAVCIS:CSI15:1,2011-01-05T14:00:00Z,28.8332,-90.8320,28.2,11111222 
WAVCIS,ioos:station:WAVCIS:CSI15:1,2011-01-05T15:00:00Z,28.8332,-90.8320,28.55,11111222 
WAVCIS,ioos:station:WAVCIS:CSI15:1,2011-01-05T16:00:00Z,28.8332,-90.8320,28.48,11111222 
WAVCIS,ioos:station:WAVCIS:CSI15:1,2011-01-05T17:00:00Z,28.8332,-90.8320,28.53,11111222 
WAVCIS,ioos:station:WAVCIS:CSI15:1,2011-01-05T18:00:00Z,28.8332,-90.8320,28.7,11111222 
WAVCIS,ioos:station:WAVCIS:CSI15:1,2011-01-05T19:00:00Z,28.8332,-90.8320,26.62,11111222 
WAVCIS,ioos:station:WAVCIS:CSI15:1,2011-01-05T20:00:00Z,28.8332,-90.8320,26.64,11111222 
WAVCIS,ioos:station:WAVCIS:CSI15:1,2011-01-05T21:00:00Z,28.8332,-90.8320,26.75,11111222 
WAVCIS,ioos:station:WAVCIS:CSI15:1,2011-01-05T22:00:00Z,28.8332,-90.8320,29.03,11111222 
WAVCIS,ioos:station:WAVCIS:CSI15:1,2011-01-05T23:00:00Z,28.8332,-90.8320,26.18,11111222 
WAVCIS,ioos:station:WAVCIS:CSI15:1,2011-01-06T00:00:00Z,28.8332,-90.8320,25.57,11111222 
WAVCIS,ioos:station:WAVCIS:CSI15:1,2011-01-06T01:00:00Z,28.8332,-90.8320,25.14,11111222 
WAVCIS,ioos:station:WAVCIS:CSI15:1,2011-01-06T02:00:00Z,28.8332,-90.8320,25.39,11111222 
WAVCIS,ioos:station:WAVCIS:CSI15:1,2011-01-06T03:00:00Z,28.8332,-90.8320,23.99,11111222 
WAVCIS,ioos:station:WAVCIS:CSI15:1,2011-01-06T04:00:00Z,28.8332,-90.8320,24.08,11111222 
WAVCIS,ioos:station:WAVCIS:CSI15:1,2011-01-06T05:00:00Z,28.8332,-90.8320,23.79,11111222 
WAVCIS,ioos:station:WAVCIS:CSI15:1,2011-01-06T06:00:00Z,28.8332,-90.8320,23.36,11111222 
WAVCIS,ioos:station:WAVCIS:CSI15:1,2011-01-06T07:00:00Z,28.8332,-90.8320,23.25,11111222 
WAVCIS,ioos:station:WAVCIS:CSI15:1,2011-01-06T08:00:00Z,28.8332,-90.8320,22.96,11111222 
WAVCIS,ioos:station:WAVCIS:CSI15:1,2011-01-06T09:00:00Z,28.8332,-90.8320,24.85,11111222 
WAVCIS,ioos:station:WAVCIS:CSI15:1,2011-01-06T10:00:00Z,28.8332,-90.8320,22.4,11111222 
WAVCIS,ioos:station:WAVCIS:CSI15:1,2011-01-06T11:00:00Z,28.8332,-90.8320,22.5,11111222 
WAVCIS,ioos:station:WAVCIS:CSI15:1,2011-01-06T12:00:00Z,28.8332,-90.8320,22.17,11111222 
WAVCIS,ioos:station:WAVCIS:CSI15:1,2011-01-06T13:00:00Z,28.8332,-90.8320,22.75,11111222 
WAVCIS,ioos:station:WAVCIS:CSI15:1,2011-01-06T14:00:00Z,28.8332,-90.8320,22.15,11111222 
WAVCIS,ioos:station:WAVCIS:CSI15:1,2011-01-06T15:00:00Z,28.8332,-90.8320,19.13,11111222 
WAVCIS,ioos:station:WAVCIS:CSI15:1,2011-01-06T16:00:00Z,28.8332,-90.8320,19.26,11111222 
WAVCIS,ioos:station:WAVCIS:CSI15:1,2011-01-06T17:00:00Z,28.8332,-90.8320,19.88,11111222 
WAVCIS,ioos:station:WAVCIS:CSI15:1,2011-01-06T18:00:00Z,28.8332,-90.8320,19.85,11111222 
WAVCIS,ioos:station:WAVCIS:CSI15:1,2011-01-06T19:00:00Z,28.8332,-90.8320,21.16,11111222 
WAVCIS,ioos:station:WAVCIS:CSI15:1,2011-01-06T20:00:00Z,28.8332,-90.8320,19.86,11111222 
WAVCIS,ioos:station:WAVCIS:CSI15:1,2011-01-06T21:00:00Z,28.8332,-90.8320,21.2,11111222 
WAVCIS,ioos:station:WAVCIS:CSI15:1,2011-01-06T22:00:00Z,28.8332,-90.8320,22.03,11111222 
WAVCIS,ioos:station:WAVCIS:CSI15:1,2011-01-06T23:00:00Z,28.8332,-90.8320,22.79,11111222 
WAVCIS,ioos:station:WAVCIS:CSI15:1,2011-01-07T00:00:00Z,28.8332,-90.8320,22.39,11111222 
WAVCIS,ioos:station:WAVCIS:CSI15:1,2011-01-07T01:00:00Z,28.8332,-90.8320,23.34,11111222 
WAVCIS,ioos:station:WAVCIS:CSI15:1,2011-01-07T02:00:00Z,28.8332,-90.8320,24.59,11111222 
WAVCIS,ioos:station:WAVCIS:CSI15:1,2011-01-07T03:00:00Z,28.8332,-90.8320,22.81,11111222 
WAVCIS,ioos:station:WAVCIS:CSI15:1,2011-01-07T04:00:00Z,28.8332,-90.8320,21.82,11111222 
WAVCIS,ioos:station:WAVCIS:CSI15:1,2011-01-07T05:00:00Z,28.8332,-90.8320,22.06,11111222 
WAVCIS,ioos:station:WAVCIS:CSI15:1,2011-01-07T06:00:00Z,28.8332,-90.8320,20.85,11111222 
WAVCIS,ioos:station:WAVCIS:CSI15:1,2011-01-07T07:00:00Z,28.8332,-90.8320,20.63,11111222 
WAVCIS,ioos:station:WAVCIS:CSI15:1,2011-01-07T08:00:00Z,28.8332,-90.8320,20.65,11111222 
WAVCIS,ioos:station:WAVCIS:CSI15:1,2011-01-07T09:00:00Z,28.8332,-90.8320,21.36,11111222 
WAVCIS,ioos:station:WAVCIS:CSI15:1,2011-01-07T10:00:00Z,28.8332,-90.8320,21.59,11111222 
WAVCIS,ioos:station:WAVCIS:CSI15:1,2011-01-07T11:00:00Z,28.8332,-90.8320,21.11,11111222 
WAVCIS,ioos:station:WAVCIS:CSI15:1,2011-01-07T12:00:00Z,28.8332,-90.8320,21.47,11111222 
WAVCIS,ioos:station:WAVCIS:CSI15:1,2011-01-07T13:00:00Z,28.8332,-90.8320,21.77,11111222 
WAVCIS,ioos:station:WAVCIS:CSI15:1,2011-01-07T14:00:00Z,28.8332,-90.8320,21.87,11111222 
WAVCIS,ioos:station:WAVCIS:CSI15:1,2011-01-07T15:00:00Z,28.8332,-90.8320,22.94,11111222 
WAVCIS,ioos:station:WAVCIS:CSI15:1,2011-01-07T16:00:00Z,28.8332,-90.8320,22.9,11111222 
WAVCIS,ioos:station:WAVCIS:CSI15:1,2011-01-07T17:00:00Z,28.8332,-90.8320,24.77,11111222 
WAVCIS,ioos:station:WAVCIS:CSI15:1,2011-01-07T18:00:00Z,28.8332,-90.8320,23.55,11111222 
WAVCIS,ioos:station:WAVCIS:CSI15:1,2011-01-07T19:00:00Z,28.8332,-90.8320,23.9,11111222 
WAVCIS,ioos:station:WAVCIS:CSI15:1,2011-01-07T20:00:00Z,28.8332,-90.8320,24.09,11111222 
WAVCIS,ioos:station:WAVCIS:CSI15:1,2011-01-07T21:00:00Z,28.8332,-90.8320,24.25,11111222 
WAVCIS,ioos:station:WAVCIS:CSI15:1,2011-01-07T22:00:00Z,28.8332,-90.8320,23.98,11111222 
WAVCIS,ioos:station:WAVCIS:CSI15:1,2011-01-07T23:00:00Z,28.8332,-90.8320,24.48,11111222 
WAVCIS,ioos:station:WAVCIS:CSI15:1,2011-01-08T00:00:00Z,28.8332,-90.8320,23.98,11111222 
WAVCIS,ioos:station:WAVCIS:CSI15:1,2011-01-08T01:00:00Z,28.8332,-90.8320,24.1,11111222 
WAVCIS,ioos:station:WAVCIS:CSI15:1,2011-01-08T02:00:00Z,28.8332,-90.8320,24.41,11111222 
WAVCIS,ioos:station:WAVCIS:CSI15:1,2011-01-08T03:00:00Z,28.8332,-90.8320,24.38,11111222 
WAVCIS,ioos:station:WAVCIS:CSI15:1,2011-01-08T04:00:00Z,28.8332,-90.8320,24.38,11111222 
WAVCIS,ioos:station:WAVCIS:CSI15:1,2011-01-08T05:00:00Z,28.8332,-90.8320,24.5,11111222 
WAVCIS,ioos:station:WAVCIS:CSI15:1,2011-01-08T06:00:00Z,28.8332,-90.8320,24.28,11111222 
WAVCIS,ioos:station:WAVCIS:CSI15:1,2011-01-08T07:00:00Z,28.8332,-90.8320,24.24,11111222 
WAVCIS,ioos:station:WAVCIS:CSI15:1,2011-01-08T08:00:00Z,28.8332,-90.8320,24.4,11111222 
WAVCIS,ioos:station:WAVCIS:CSI15:1,2011-01-08T09:00:00Z,28.8332,-90.8320,24.47,11111222 
WAVCIS,ioos:station:WAVCIS:CSI15:1,2011-01-08T10:00:00Z,28.8332,-90.8320,24.73,11111222 
WAVCIS,ioos:station:WAVCIS:CSI15:1,2011-01-08T11:00:00Z,28.8332,-90.8320,23.42,11111222 
WAVCIS,ioos:station:WAVCIS:CSI15:1,2011-01-08T12:00:00Z,28.8332,-90.8320,21.75,11111222 
WAVCIS,ioos:station:WAVCIS:CSI15:1,2011-01-08T13:00:00Z,28.8332,-90.8320,21.22,11111222 
WAVCIS,ioos:station:WAVCIS:CSI15:1,2011-01-08T14:00:00Z,28.8332,-90.8320,21.0,11111222 
WAVCIS,ioos:station:WAVCIS:CSI15:1,2011-01-08T15:00:00Z,28.8332,-90.8320,21.02,11111222 
WAVCIS,ioos:station:WAVCIS:CSI15:1,2011-01-08T16:00:00Z,28.8332,-90.8320,22.55,11111222 
WAVCIS,ioos:station:WAVCIS:CSI15:1,2011-01-08T17:00:00Z,28.8332,-90.8320,21.37,11111222 
WAVCIS,ioos:station:WAVCIS:CSI15:1,2011-01-08T18:00:00Z,28.8332,-90.8320,20.96,11111222 
WAVCIS,ioos:station:WAVCIS:CSI15:1,2011-01-08T19:00:00Z,28.8332,-90.8320,20.87,11111222 
WAVCIS,ioos:station:WAVCIS:CSI15:1,2011-01-08T20:00:00Z,28.8332,-90.8320,21.57,11111222 
WAVCIS,ioos:station:WAVCIS:CSI15:1,2011-01-08T21:00:00Z,28.8332,-90.8320,22.67,11111222 
WAVCIS,ioos:station:WAVCIS:CSI15:1,2011-01-08T22:00:00Z,28.8332,-90.8320,21.52,11111222 
WAVCIS,ioos:station:WAVCIS:CSI15:1,2011-01-08T23:00:00Z,28.8332,-90.8320,23.19,11111222 
WAVCIS,ioos:station:WAVCIS:CSI15:1,2011-01-09T00:00:00Z,28.8332,-90.8320,23.1,11111222 
WAVCIS,ioos:station:WAVCIS:CSI15:1,2011-01-09T01:00:00Z,28.8332,-90.8320,22.0,11111222 
WAVCIS,ioos:station:WAVCIS:CSI15:1,2011-01-09T02:00:00Z,28.8332,-90.8320,22.34,11111222 
WAVCIS,ioos:station:WAVCIS:CSI15:1,2011-01-09T03:00:00Z,28.8332,-90.8320,22.29,11111222 
WAVCIS,ioos:station:WAVCIS:CSI15:1,2011-01-09T04:00:00Z,28.8332,-90.8320,24.24,11111222 
WAVCIS,ioos:station:WAVCIS:CSI15:1,2011-01-09T05:00:00Z,28.8332,-90.8320,22.41,11111222 
WAVCIS,ioos:station:WAVCIS:CSI15:1,2011-01-09T06:00:00Z,28.8332,-90.8320,21.55,11111222 
WAVCIS,ioos:station:WAVCIS:CSI15:1,2011-01-09T07:00:00Z,28.8332,-90.8320,22.21,11111222 
WAVCIS,ioos:station:WAVCIS:CSI15:1,2011-01-09T08:00:00Z,28.8332,-90.8320,24.09,11111222 
WAVCIS,ioos:station:WAVCIS:CSI15:1,2011-01-09T09:00:00Z,28.8332,-90.8320,23.92,11111222 
WAVCIS,ioos:station:WAVCIS:CSI15:1,2011-01-09T10:00:00Z,28.8332,-90.8320,23.93,11111222 
WAVCIS,ioos:station:WAVCIS:CSI15:1,2011-01-09T11:00:00Z,28.8332,-90.8320,23.95,11111222 
WAVCIS,ioos:station:WAVCIS:CSI15:1,2011-01-09T12:00:00Z,28.8332,-90.8320,24.35,11111222 
WAVCIS,ioos:station:WAVCIS:CSI15:1,2011-01-09T13:00:00Z,28.8332,-90.8320,24.71,11111222 
WAVCIS,ioos:station:WAVCIS:CSI15:1,2011-01-09T14:00:00Z,28.8332,-90.8320,24.09,11111222 
WAVCIS,ioos:station:WAVCIS:CSI15:1,2011-01-09T15:00:00Z,28.8332,-90.8320,25.22,11111222 
WAVCIS,ioos:station:WAVCIS:CSI15:1,2011-01-09T16:00:00Z,28.8332,-90.8320,26.46,11111222 
WAVCIS,ioos:station:WAVCIS:CSI15:1,2011-01-09T17:00:00Z,28.8332,-90.8320,26.64,11111222 
WAVCIS,ioos:station:WAVCIS:CSI15:1,2011-01-09T18:00:00Z,28.8332,-90.8320,25.27,11111222 
WAVCIS,ioos:station:WAVCIS:CSI15:1,2011-01-09T19:00:00Z,28.8332,-90.8320,25.04,11111222 
WAVCIS,ioos:station:WAVCIS:CSI15:1,2011-01-09T20:00:00Z,28.8332,-90.8320,23.57,11111222 
WAVCIS,ioos:station:WAVCIS:CSI15:1,2011-01-09T21:00:00Z,28.8332,-90.8320,24.0,11111222 
WAVCIS,ioos:station:WAVCIS:CSI15:1,2011-01-09T22:00:00Z,28.8332,-90.8320,24.28,11111222 
WAVCIS,ioos:station:WAVCIS:CSI15:1,2011-01-09T23:00:00Z,28.8332,-90.8320,25.46,11111222 
WAVCIS,ioos:station:WAVCIS:CSI15:1,2011-01-10T00:00:00Z,28.8332,-90.8320,21.92,11111222 
WAVCIS,ioos:station:WAVCIS:CSI15:1,2011-01-10T01:00:00Z,28.8332,-90.8320,20.81,11111222 
WAVCIS,ioos:station:WAVCIS:CSI15:1,2011-01-10T02:00:00Z,28.8332,-90.8320,24.8,11111222 
WAVCIS,ioos:station:WAVCIS:CSI15:1,2011-01-10T03:00:00Z,28.8332,-90.8320,21.18,11111222 
WAVCIS,ioos:station:WAVCIS:CSI15:1,2011-01-10T04:00:00Z,28.8332,-90.8320,21.6,11111222 
WAVCIS,ioos:station:WAVCIS:CSI15:1,2011-01-10T05:00:00Z,28.8332,-90.8320,19.0,11111222 
WAVCIS,ioos:station:WAVCIS:CSI15:1,2011-01-10T06:00:00Z,28.8332,-90.8320,19.02,11111222 
WAVCIS,ioos:station:WAVCIS:CSI15:1,2011-01-10T07:00:00Z,28.8332,-90.8320,18.08,11111222 
WAVCIS,ioos:station:WAVCIS:CSI15:1,2011-01-10T08:00:00Z,28.8332,-90.8320,17.99,11111222 
WAVCIS,ioos:station:WAVCIS:CSI15:1,2011-01-10T09:00:00Z,28.8332,-90.8320,17.24,11111222 
WAVCIS,ioos:station:WAVCIS:CSI15:1,2011-01-10T10:00:00Z,28.8332,-90.8320,18.32,11111222 
WAVCIS,ioos:station:WAVCIS:CSI15:1,2011-01-10T11:00:00Z,28.8332,-90.8320,15.4,11111222 
WAVCIS,ioos:station:WAVCIS:CSI15:1,2011-01-10T12:00:00Z,28.8332,-90.8320,15.71,11111222 
WAVCIS,ioos:station:WAVCIS:CSI15:1,2011-01-10T13:00:00Z,28.8332,-90.8320,14.89,11111222 
WAVCIS,ioos:station:WAVCIS:CSI15:1,2011-01-10T14:00:00Z,28.8332,-90.8320,15.76,11111222 
WAVCIS,ioos:station:WAVCIS:CSI15:1,2011-01-10T15:00:00Z,28.8332,-90.8320,15.79,11111222 
WAVCIS,ioos:station:WAVCIS:CSI15:1,2011-01-10T16:00:00Z,28.8332,-90.8320,15.51,11111222 
WAVCIS,ioos:station:WAVCIS:CSI15:1,2011-01-10T17:00:00Z,28.8332,-90.8320,15.08,11111222 
WAVCIS,ioos:station:WAVCIS:CSI15:1,2011-01-10T18:00:00Z,28.8332,-90.8320,15.24,11111222 
WAVCIS,ioos:station:WAVCIS:CSI15:1,2011-01-10T19:00:00Z,28.8332,-90.8320,17.43,11111222 
WAVCIS,ioos:station:WAVCIS:CSI15:1,2011-01-10T20:00:00Z,28.8332,-90.8320,15.65,11111222 
WAVCIS,ioos:station:WAVCIS:CSI15:1,2011-01-10T21:00:00Z,28.8332,-90.8320,15.55,11111222 
WAVCIS,ioos:station:WAVCIS:CSI15:1,2011-01-10T22:00:00Z,28.8332,-90.8320,15.65,11111222 
WAVCIS,ioos:station:WAVCIS:CSI15:1,2011-01-10T23:00:00Z,28.8332,-90.8320,15.7,11111222 
WAVCIS,ioos:station:WAVCIS:CSI15:1,2011-01-11T00:00:00Z,28.8332,-90.8320,16.3,11111222 
WAVCIS,ioos:station:WAVCIS:CSI15:1,2011-01-11T01:00:00Z,28.8332,-90.8320,17.58,11111222 
WAVCIS,ioos:station:WAVCIS:CSI15:1,2011-01-11T02:00:00Z,28.8332,-90.8320,18.13,11111222 
WAVCIS,ioos:station:WAVCIS:CSI15:1,2011-01-11T03:00:00Z,28.8332,-90.8320,18.2,11111222 
WAVCIS,ioos:station:WAVCIS:CSI15:1,2011-01-11T04:00:00Z,28.8332,-90.8320,16.31,11111222 
WAVCIS,ioos:station:WAVCIS:CSI15:1,2011-01-11T05:00:00Z,28.8332,-90.8320,15.02,11111222 
WAVCIS,ioos:station:WAVCIS:CSI15:1,2011-01-11T06:00:00Z,28.8332,-90.8320,13.72,11111222 
WAVCIS,ioos:station:WAVCIS:CSI15:1,2011-01-11T07:00:00Z,28.8332,-90.8320,14.31,11111222 
WAVCIS,ioos:station:WAVCIS:CSI15:1,2011-01-11T08:00:00Z,28.8332,-90.8320,14.56,11111222 
WAVCIS,ioos:station:WAVCIS:CSI15:1,2011-01-11T09:00:00Z,28.8332,-90.8320,15.03,11111222 
WAVCIS,ioos:station:WAVCIS:CSI15:1,2011-01-11T10:00:00Z,28.8332,-90.8320,14.46,11111222 
WAVCIS,ioos:station:WAVCIS:CSI15:1,2011-01-11T11:00:00Z,28.8332,-90.8320,13.83,11111222 
WAVCIS,ioos:station:WAVCIS:CSI15:1,2011-01-11T12:00:00Z,28.8332,-90.8320,15.37,11111222 
WAVCIS,ioos:station:WAVCIS:CSI15:1,2011-01-11T13:00:00Z,28.8332,-90.8320,13.49,11111222 
WAVCIS,ioos:station:WAVCIS:CSI15:1,2011-01-11T14:00:00Z,28.8332,-90.8320,13.07,11111222 
WAVCIS,ioos:station:WAVCIS:CSI15:1,2011-01-11T15:00:00Z,28.8332,-90.8320,12.02,11111222 
WAVCIS,ioos:station:WAVCIS:CSI15:1,2011-01-11T16:00:00Z,28.8332,-90.8320,11.0,11111222 
WAVCIS,ioos:station:WAVCIS:CSI15:1,2011-01-11T17:00:00Z,28.8332,-90.8320,10.8,11111222 
WAVCIS,ioos:station:WAVCIS:CSI15:1,2011-01-11T18:00:00Z,28.8332,-90.8320,12.98,11111222 
WAVCIS,ioos:station:WAVCIS:CSI15:1,2011-01-11T19:00:00Z,28.8332,-90.8320,13.18,11111222 
WAVCIS,ioos:station:WAVCIS:CSI15:1,2011-01-11T20:00:00Z,28.8332,-90.8320,13.48,11111222 
WAVCIS,ioos:station:WAVCIS:CSI15:1,2011-01-11T21:00:00Z,28.8332,-90.8320,13.72,11111222 
WAVCIS,ioos:station:WAVCIS:CSI15:1,2011-01-11T22:00:00Z,28.8332,-90.8320,15.37,11111222 
WAVCIS,ioos:station:WAVCIS:CSI15:1,2011-01-11T23:00:00Z,28.8332,-90.8320,15.9,11111222 
WAVCIS,ioos:station:WAVCIS:CSI15:1,2011-01-12T00:00:00Z,28.8332,-90.8320,17.15,11111222 
WAVCIS,ioos:station:WAVCIS:CSI15:1,2011-01-12T01:00:00Z,28.8332,-90.8320,17.17,11111222 
WAVCIS,ioos:station:WAVCIS:CSI15:1,2011-01-12T02:00:00Z,28.8332,-90.8320,17.16,11111222 
WAVCIS,ioos:station:WAVCIS:CSI15:1,2011-01-12T03:00:00Z,28.8332,-90.8320,16.87,11111222 
WAVCIS,ioos:station:WAVCIS:CSI15:1,2011-01-12T04:00:00Z,28.8332,-90.8320,16.44,11111222 